Weather History for LEGR - October, 2011

Change the Weather History Date:

Saturday, October 8, 2011

  Actual Average Record
Temperature  
Mean Temperature 70 °F -  
Max Temperature 81 °F 69 °F 85 °F (2012)
Min Temperature 59 °F 45 °F 35 °F (1996)
Cooling Degree Days 5    
Growing Degree Days 20 (Base 50)    
Moisture  
Dew Point 44 °F    
Average Humidity 39    
Maximum Humidity 72    
Minimum Humidity 20    
Precipitation  
Precipitation 0.00 in - - ()
Sea Level Pressure  
Sea Level Pressure 30.16 in    
Wind  
Wind Speed 4 mph ()    
Max Wind Speed 12 mph    
Max Gust Speed -    
Visibility 8.5 miles    
Events      
Averages and records for this station are not official NWS values.
T = Trace of Precipitation, MM = Missing Value Source: Averaged Metar Reports

Daily Weather History Graph

Daily Weather History Graph

Search for Another Location

Airport or City:

Trip Planner

Search our weather history database for the weather conditions in past years. The results will help you decide how hot, cold, wet, or windy it might be!

Date:

Astronomy

Oct. 08, 2011 Rise Set
Actual Time 8:16 AM CEST 7:48 PM CEST
Civil Twilight 7:50 AM CEST 8:14 PM CEST
Nautical Twilight 7:20 AM CEST 8:44 PM CEST
Astronomical Twilight 6:49 AM CEST 9:15 PM CEST
Moon 5:49 PM CEST (10/8) 4:53 AM CEST (10/8)
Length of Visible Light 12h 24m
Length of Day
11h 32m
Waxing Gibbous, 88% of the Moon is Illuminated
Oct 8
Waxing Gibbous
Oct 12
Full
Oct 20
Last Quarter
Oct 26
New
Nov 2
First Quarter

Hourly Weather History & Observations

Time (CEST) Temp. Dew Point Humidity Pressure Visibility Wind Dir Wind Speed Gust Speed Precip Events Conditions
2:00 AM 67 °F 36 °F 20% 30.07 in 19 mi SSE 2.3 mph - -  
6:00 AM 64.4 °F 37.4 °F 37% 30.12 in - NNE 11.5 mph - N/A   Clear
6:30 AM 62.6 °F 39.2 °F 42% 30.12 in - NNE 5.8 mph - N/A   Clear
7:00 AM 62.6 °F 39.2 °F 42% 30.15 in - NNE 3.5 mph - N/A   Clear
7:30 AM 60.8 °F 39.2 °F 45% 30.15 in - NNE 4.6 mph - N/A   Clear
8:00 AM 60 °F 38 °F 33% 30.13 in 19 mi NE 3.5 mph - -   Clear
8:00 AM 59.0 °F 39.2 °F 48% 30.15 in - Variable 1.2 mph - N/A   Clear
8:30 AM 59.0 °F 39.2 °F 48% 30.15 in - North 4.6 mph - N/A   Clear
9:00 AM 59.0 °F 39.2 °F 48% 30.18 in - North 3.5 mph - N/A   Clear
9:30 AM 60.8 °F 41.0 °F 48% 30.18 in - Variable 1.2 mph - N/A   Clear
10:00 AM 62.6 °F 39.2 °F 42% 30.21 in - Variable 1.2 mph - N/A   Clear
10:30 AM 66.2 °F 39.2 °F 37% 30.21 in - Calm Calm - N/A   Clear
11:00 AM 68.0 °F 39.2 °F 35% 30.21 in - Calm Calm - N/A   Clear
11:30 AM 68.0 °F 39.2 °F 35% 30.21 in - Variable 1.2 mph - N/A   Clear
12:00 PM 69.8 °F 39.2 °F 33% 30.21 in 6.2 mi Variable 1.2 mph - N/A   Partly Cloudy
12:30 PM 69.8 °F 41.0 °F 35% 30.21 in 6.2 mi Variable 1.2 mph - N/A   Partly Cloudy
1:00 PM 73.4 °F 39.2 °F 29% 30.21 in 6.2 mi Variable 1.2 mph - N/A   Partly Cloudy
1:30 PM 75.2 °F 44.6 °F 34% 30.21 in 6.2 mi Variable 3.5 mph - N/A   Partly Cloudy
2:00 PM 76 °F 46 °F 24% 30.11 in 19 mi WNW 5.8 mph - -   Scattered Clouds
2:00 PM 75.2 °F 50.0 °F 41% 30.18 in 6.2 mi WNW 5.8 mph - N/A   Partly Cloudy
2:30 PM 77.0 °F 44.6 °F 32% 30.18 in 6.2 mi Variable 2.3 mph - N/A   Partly Cloudy
3:00 PM 78.8 °F 42.8 °F 28% 30.15 in 6.2 mi Variable 2.3 mph - N/A   Partly Cloudy
3:30 PM 78.8 °F 44.6 °F 30% 30.15 in 6.2 mi Variable 4.6 mph - N/A   Partly Cloudy
4:00 PM 78.8 °F 44.6 °F 30% 30.15 in 6.2 mi WNW 4.6 mph - N/A   Partly Cloudy
4:30 PM 80.6 °F 44.6 °F 28% 30.12 in 6.2 mi WNW 4.6 mph - N/A   Partly Cloudy
5:00 PM 80.6 °F 46.4 °F 30% 30.12 in 6.2 mi WNW 5.8 mph - N/A   Partly Cloudy
5:30 PM 80.6 °F 46.4 °F 30% 30.12 in 6.2 mi West 6.9 mph - N/A   Partly Cloudy
6:00 PM 80.6 °F 44.6 °F 28% 30.12 in 6.2 mi West 6.9 mph - N/A   Partly Cloudy
6:30 PM 78.8 °F 48.2 °F 34% 30.09 in 6.2 mi West 9.2 mph - N/A   Partly Cloudy
7:00 PM 77.0 °F 53.6 °F 44% 30.12 in 6.2 mi West 6.9 mph - N/A   Partly Cloudy
7:30 PM 75.2 °F 42.8 °F 31% 30.12 in 6.2 mi NNW 4.6 mph - N/A   Partly Cloudy
8:00 PM 72 °F 51 °F 36% 30.08 in 16 mi WSW 5.8 mph - -   Scattered Clouds
8:00 PM 71.6 °F 51.8 °F 50% 30.15 in 6.2 mi WSW 5.8 mph - N/A   Partly Cloudy
8:30 PM 68.0 °F 53.6 °F 60% 30.15 in - Variable 2.3 mph - N/A   Clear
9:30 PM 69.8 °F 53.6 °F 56% 30.18 in - Variable 4.6 mph - N/A   Clear
10:00 PM 68.0 °F 50.0 °F 52% 30.18 in - Calm Calm - N/A   Clear
10:30 PM 64.4 °F 51.8 °F 64% 30.18 in - Variable 2.3 mph - N/A   Clear
11:00 PM 60.8 °F 51.8 °F 72% 30.18 in - Calm Calm - N/A   Clear